Regional Weather Roundup
Issued by NWS

Home | Current Version | Previous Version | Text Only | Print | Product List | Glossary Off
Versions: 1 2 3 4 5 6 7 8 9 10 11 12 13 14 15 16 17 18 19 20 21 22 23 24 25 26 27 28 29 30 31 32 33 34 35 36 37 38 39 40 41 42 43 44 45 46 47 48 49 50

000
ASUS43 KDTX 231001
RWRMI
MICHIGAN HOURLY REGIONAL WEATHER ROUNDUP
NATIONAL WEATHER SERVICE DETROIT/PONTIAC MI
600 AM EDT TUE SEP 23 2014

NOTE: "FAIR" INDICATES FEW OR NO CLOUDS BELOW 12,000 FEET WITH NO
SIGNIFICANT WEATHER AND/OR OBSTRUCTION TO VISIBILITY.

MIZ047>049-052>055-059>063-066>070-074>076-081>083-231100-
SOUTHEAST LOWER MICHIGAN

CITY           SKY/WX    TMP DP  RH WIND       PRES   REMARKS
ADRIAN         CLEAR     42  41  96 CALM      30.31R
ALMA           CLEAR     43  42  97 CALM      30.28S FOG
ANN ARBOR      PTCLDY    38  36  92 CALM      30.30R FOG
BAD AXE        CLEAR     44  44 100 S5        30.28R
CARO           CLEAR     43  43  99 CALM      30.28R
DETROIT CITY   CLEAR     49  43  80 CALM      30.30S
DETROIT        CLEAR     46  43  89 CALM      30.30S
FLINT          CLEAR     45  42  89 CALM      30.30R FOG
GROSSE ILE     CLEAR     46  45  93 CALM      30.29S
HILLSDALE      CLEAR     40  40 100 CALM      30.30R
HOWELL         CLEAR     43  42  97 CALM      30.29S

CITY           SKY/WX    TMP DP  RH WIND       PRES   REMARKS
JACKSON        CLEAR     43  41  93 CALM      30.30R
LAMBERTVILLE   CLEAR     43  41  93 CALM      30.31R
LANSING        CLEAR     46  43  89 CALM      30.30R
LAPEER         FAIR      41  40  98 CALM      30.29R
MASON          CLEAR     43  42  97 CALM      30.30R
MONROE         CLEAR     43  43 100 CALM      30.29S
MT. CLEMENS    CLEAR     47  47  99 CALM      30.27R
PONTIAC        CLEAR     45  41  86 CALM      30.29R
PORT HOPE        N/A     50  47  89 SW10      30.23S
PORT HURON     FOG       39  39 100 CALM      30.29R VSB 1
TRI CITIES     CLEAR     48  45  89 SW7       30.28S
TROY           CLEAR     47  45  90 CALM      30.31R
SAGINAW HB     CLEAR     46  46 100 SW3       30.28R
$$
MIZ043>046-050>051-056>058-064>065-071>073-077>080-231100-
SOUTHWEST LOWER MICHIGAN

CITY           SKY/WX    TMP DP  RH WIND       PRES   REMARKS
BATTLE CREEK   CLEAR     45  41  86 CALM      30.30R
BENTON HARBOR  CLEAR     42  41  96 CALM      30.29S
BIG RAPIDS     CLEAR     45  45 100 CALM      30.26S FOG
COLDWATER      CLEAR     43  42  97 CALM      30.30R
FREMONT        FAIR      46  45  98 CALM      30.27R FOG
HOLLAND        CLEAR     48  43  82 S5        30.29R
GRAND RAPIDS   CLEAR     46  43  89 CALM      30.29R
IONIA          FAIR      46  44  92 W5        30.28S
KALAMAZOO      CLEAR     46  43  89 CALM      30.30S
LUDINGTON      FOG       48  47  97 CALM      30.26R VSB 1/4
MARSHALL       CLEAR     39  38  96 S5        30.29S
MOUNT PLEASANT CLEAR     44  43  97 CALM      30.27R FOG
MUSKEGON       CLEAR     51  49  92 SE5       30.28R
SOUTH HAVEN    CLEAR     45  43  92 CALM      30.29S
$$
MIZ016>042-231100-
NORTHERN LOWER MICHIGAN

CITY           SKY/WX    TMP DP  RH WIND       PRES   REMARKS
ALPENA         CLEAR     51  46  83 SW8       30.19R
BEAVER ISLAND  CLEAR     57  55  91 SW9       30.18R
BELLAIRE       CLEAR     43  42  95 CALM      30.22R
CADILLAC       CLOUDY    43  43 100 CALM      30.24S
CHARLEVOIX     CLEAR     54  53  97 S9G16     30.22R
FRANKFORT      CLEAR     49  47  91 CALM      30.23R FOG
GAYLORD        CLEAR     47  46  97 SW6       30.22R
GRAYLING       CLEAR     40  40 100 CALM      30.24R FOG
HARBOR SPRINGS CLEAR     53  49  89 SW3       30.20R
HOUGHTON LAKE  CLEAR     50  47  89 SW7       30.25R
MANISTEE       PTCLDY    43  39  87 E5        30.25R
OSCODA         CLEAR     47  45  91 SW7       30.21S
PELLSTON       CLEAR     55  51  86 W3        30.19R
ROGERS CITY    CLEAR     52  49  90 SW10      30.18R
TRAVERSE CITY  CLEAR     51  49  92 CALM      30.21S
$$
MIZ007>008-015-231100-
EASTERN UPPER MICHIGAN

CITY           SKY/WX    TMP DP  RH WIND       PRES   REMARKS
KINROSS        CLEAR     54  54 100 SW5       30.14R
MACKINAC ISLAN CLEAR     56  55  95 SW8       30.17R
NEWBERRY       CLEAR     51  48  90 W8        30.14R
S. S. MARIE    CLEAR     50  47  89 SW5       30.13R
$$
MIZ004>006-011>014-085-231100-
CENTRAL UPPER MICHIGAN

CITY           SKY/WX    TMP DP  RH WIND       PRES   REMARKS
MANISTIQUE     CLEAR     52  49  89 W3        30.15R
ESCANABA       CLEAR     48  46  93 W8        30.17S
MENOMINEE      CLEAR     50  46  87 W3        30.20R
SAWYER-GWINN   CLEAR     50  47  88 W6        30.17R
$$
MIZ001>003-009>011-084-231100-
WESTERN UPPER MICHIGAN

CITY           SKY/WX    TMP DP  RH WIND       PRES   REMARKS
IRON MOUNTAIN  CLEAR     51  47  86 CALM      30.19R
HOUGHTON       CLEAR     56  49  77 W14       30.15R
COPPER HARBOR    N/A     61  49  64 NW7       30.12R
IRONWOOD         N/A     46  46 100 CALM      30.17S VSB 3/4
$$

ABBREVIATIONS USED IN REMARKS
   TC - TEMPERATURE IN CELSIUS
  WCI - WIND CHILL INDEX
   HX - HEAT INDEX
  VSB - VISIBILITY



USA.gov is the U.S. government's official web portal to all federal, state and local government web resources and services.